Back to catalog

STARLINK-5108

AliveCommunicationsVLEO
NORAD 53992·PAYLOAD·🇺🇸 United States

Launched Oct 5, 2022 from Vandenberg Space Force Base

Loading…

Next Passes (next 24 hours)

TLE

FreshSource: CelesTrak SupGP

Epoch: Sep 15, 2026, 01:58 UTC

1 53992C 22125AE  26258.08243056 -.00026793  00000+0 -79181-3 0  2586
2 53992  53.1590  77.1639 0001226  84.7718 202.9311 15.34396191    13

Track STARLINK-5108 in real time with AllMySat

Download on the App Store